Location: Eexterzandvoort
(53.0303°N, 6.7884°E)
Time: 23:24:39
(UTC+00:00)

Cosmos 1346 Rocket - Pass Details

Date: 19 May 2025
Orbit: 485 x 499 km, 81.2° (Epoch: 22 June)

Event Time Altitude Azimuth Distance (km) Brightness Sun altitude
Rises 21:05:55 0° 339° (NNW) 2,590 8.1 -10.7°
Reaches altitude 10° 21:08:11 10° 329° (NNW) 1,699 6.9 -10.9°
Maximum altitude 21:11:30 31° 266° (W) 878 4.2 -11.1°
Drops below altitude 10° 21:14:48 10° 203° (SSW) 1,678 5.0 -11.4°
Enters shadow 21:15:31 - 199° (SSW) 1,955 5.3 -11.5°
